FFT814 KORD-KSTL

Flight info

Callsign FFT814
Flight time N/A
Altitude 34000
Route BACEN BLOKR RBS AARCH2
Aircraft A20N/M-SDE2E3FGHIRWXY/LB1

Departure

Time 2026-05-08 03:42
Airport Chicago O'Hare International Airport (KORD)

Arrival

Time N/A
Airport St. Louis Lambert International Airport (KSTL)
Time Latitude Longitude Altitude Speed Heading
2026-05-08 03:24 41.97358 -87.88996 660 ft 0 kts 359°
2026-05-08 03:28 41.97341 -87.88992 660 ft 5 kts 340°
2026-05-08 03:28 41.97316 -87.88967 660 ft 5 kts 285°
2026-05-08 03:28 41.97314 -87.88956 659 ft 0 kts 272°
2026-05-08 03:33 41.97314 -87.88959 659 ft 6 kts 271°
2026-05-08 03:33 41.97278 -87.89026 661 ft 9 kts 223°
2026-05-08 03:33 41.97244 -87.89084 661 ft 6 kts 223°
2026-05-08 03:33 41.97207 -87.89131 661 ft 8 kts 245°
2026-05-08 03:34 41.97197 -87.89206 662 ft 8 kts 264°
2026-05-08 03:34 41.97195 -87.89296 664 ft 11 kts 271°
2026-05-08 03:34 41.97194 -87.89404 666 ft 13 kts 268°
2026-05-08 03:34 41.97200 -87.89536 665 ft 15 kts 284°
2026-05-08 03:35 41.97212 -87.89671 666 ft 15 kts 249°
2026-05-08 03:35 41.97171 -87.89794 668 ft 14 kts 245°
2026-05-08 03:35 41.97141 -87.89920 670 ft 15 kts 263°
2026-05-08 03:35 41.97138 -87.90074 667 ft 17 kts 261°
2026-05-08 03:36 41.97063 -87.90137 668 ft 13 kts 208°
2026-05-08 03:36 41.97046 -87.90378 665 ft 16 kts 268°
2026-05-08 03:36 41.97044 -87.90557 665 ft 21 kts 271°
2026-05-08 03:37 41.97045 -87.90763 666 ft 20 kts 270°
2026-05-08 03:37 41.97043 -87.90953 669 ft 20 kts 268°
2026-05-08 03:37 41.97041 -87.91136 673 ft 19 kts 270°
2026-05-08 03:37 41.97043 -87.91313 676 ft 19 kts 271°
2026-05-08 03:38 41.97041 -87.91492 678 ft 19 kts 269°
2026-05-08 03:38 41.97040 -87.91675 678 ft 20 kts 271°
2026-05-08 03:38 41.97040 -87.91867 676 ft 18 kts 270°
2026-05-08 03:38 41.97023 -87.92036 675 ft 19 kts 243°
2026-05-08 03:39 41.97004 -87.92059 676 ft 0 kts 214°
2026-05-08 03:39 41.96962 -87.92086 676 ft 12 kts 182°
2026-05-08 03:40 41.96925 -87.92072 675 ft 14 kts 150°
2026-05-08 03:40 41.96907 -87.92011 676 ft 0 kts 99°
2026-05-08 03:40 41.96907 -87.92007 675 ft 0 kts 96°
2026-05-08 03:41 41.96908 -87.91836 676 ft 38 kts 87°
2026-05-08 03:41 41.96922 -87.91305 675 ft 77 kts 84°
2026-05-08 03:41 41.96914 -87.90268 666 ft 149 kts 91°
2026-05-08 03:41 41.96889 -87.88690 1105 ft 181 kts 92°
2026-05-08 03:42 41.96878 -87.86845 1696 ft 216 kts 89°
2026-05-08 03:42 41.96896 -87.84617 2071 ft 258 kts 86°
2026-05-08 03:42 41.97310 -87.82286 3138 ft 261 kts 70°
2026-05-08 03:42 41.97514 -87.79821 3967 ft 277 kts 97°
2026-05-08 03:43 41.96881 -87.77360 4647 ft 283 kts 123°
2026-05-08 03:43 41.95529 -87.75469 4917 ft 281 kts 150°
2026-05-08 03:43 41.93730 -87.74577 4997 ft 275 kts 178°
2026-05-08 03:43 41.91880 -87.74864 5005 ft 266 kts 206°
2026-05-08 03:44 41.90401 -87.76236 5024 ft 257 kts 232°
2026-05-08 03:44 41.89287 -87.78104 5017 ft 257 kts 233°
2026-05-08 03:44 41.88021 -87.79810 5022 ft 260 kts 223°
2026-05-08 03:44 41.86515 -87.81170 5025 ft 263 kts 213°
2026-05-08 03:45 41.84884 -87.82222 5027 ft 265 kts 207°
2026-05-08 03:45 41.83149 -87.83124 5215 ft 269 kts 204°
2026-05-08 03:45 41.81376 -87.83957 6011 ft 270 kts 203°
2026-05-08 03:45 41.79607 -87.84766 7215 ft 269 kts 204°
2026-05-08 03:46 41.77827 -87.85580 8291 ft 272 kts 206°
2026-05-08 03:46 41.76022 -87.86414 9371 ft 276 kts 207°
2026-05-08 03:46 41.74198 -87.87263 10375 ft 281 kts 208°
2026-05-08 03:46 41.72285 -87.88170 10900 ft 303 kts 207°
2026-05-08 03:47 41.70218 -87.89158 11355 ft 326 kts 207°
2026-05-08 03:47 41.68075 -87.90166 12111 ft 334 kts 206°
2026-05-08 03:47 41.65870 -87.91192 13060 ft 338 kts 206°
2026-05-08 03:47 41.63627 -87.92235 13941 ft 344 kts 206°
2026-05-08 03:48 41.61348 -87.93297 14707 ft 349 kts 207°
2026-05-08 03:48 41.59036 -87.94377 15461 ft 355 kts 207°
2026-05-08 03:48 41.56681 -87.95479 16217 ft 361 kts 207°
2026-05-08 03:48 41.55978 -87.95808 16434 ft 363 kts 207°